Location: Ago
(8.4667°N, 4.4167°E)
Time: 08:16:27
(UTC+00:00)

Sich 1 Rocket - Pass Details

Date: 06 June 2020
Orbit: 616 x 652 km, 82.5° (Epoch: 05 July)

Event Time Altitude Azimuth Distance (km) Brightness Sun altitude
Rises 19:08:10 0° 12° (NNE) 2,946 7.2 -16.3°
Reaches altitude 10° 19:10:39 10° 23° (NNE) 2,033 6.2 -16.9°
Maximum altitude 19:14:36 30° 85° (E) 1,141 4.4 -17.7°
Enters shadow 19:14:41 30° 87° (E) 1,141 4.4 -17.8°
